OSCAR 27

Last updated on Fri Jun 19 2026 20:04:44 GMT+0000 (Coordinated Universal Time)

1 18361U 87080A 26170.51531277 .00000097 00000+0 14593-3 0 9999 2 18361 90.3721 86.2394 0105541 44.5963 316.3616 13.44942312900943
UTC large
Height (km)
Speed (km/s)
/
Latitude / Longitude
Inclination (degrees)
Orbital Period (minutes)
Azimuth
Elevation
Range (km)
Doppler Factor

Next 0 passes for location: London (51.5072 / 0.1276)

Sorry there are no passes over London.
OSCAR 27